M I D A S
Marine Information and Data Acquisition System
Tripno 2147 of the Zeeleeuw from 2011-07-18 07:07:04 to 2011-07-18 13:53:03
Back to CruiseResearch ActivitiesStationsMapUnderway DataData graphs

EquipmentUnitsComment
TimeDGPSUTC
LatitudeDGPSDM.mWGS84
LongitudeDGPSDM.mWGS84
HeadingGyrodeg 
SOGDGPSknotsSpeed over ground
COGDGPSdegCourse over ground
DepthEcho soundermeters200 kHz
Missing or incorrect values are displayed as -999
Navigation data collected by the RV Zeeleeuw from 2011-07-18 06:54:56 to 2011-07-18 15:36:40
                                                                                    Next 1000 lines
Time Latitude Longitude Heading SOG COG Depth
2011-07-18 06:55:08 51°13.637 2°56.016 111.1 1.3 296 6.9
2011-07-18 06:55:12 51°13.638 2°56.013 111 1.6 296 6.9
2011-07-18 06:55:16 51°13.639 2°56.01 110.9 2.1 293 7.1
2011-07-18 06:55:23 51°13.641 2°56.003 111 2.5 296 -999
2011-07-18 06:55:28 51°13.642 2°55.997 111.3 2.8 295 -999
2011-07-18 06:55:34 51°13.645 2°55.99 111.4 3.1 297 -999
2011-07-18 06:55:40 51°13.647 2°55.981 111.4 3.4 293 -999
2011-07-18 06:55:45 51°13.649 2°55.974 111.1 3.6 294 -999
2011-07-18 06:55:51 51°13.652 2°55.965 110.9 3.8 294 -999
2011-07-18 06:55:56 51°13.654 2°55.957 110.4 3.9 294 -999
2011-07-18 06:56:00 51°13.655 2°55.95 109.8 3.8 291 -999
2011-07-18 06:56:06 51°13.658 2°55.941 109 3.9 291 -999
2011-07-18 06:56:11 51°13.659 2°55.933 108.5 3.9 289 -999
2011-07-18 06:56:16 51°13.661 2°55.925 108.5 3.9 290 -999
2011-07-18 06:56:20 51°13.662 2°55.918 108.5 3.9 291 -999
2011-07-18 06:56:26 51°13.665 2°55.908 108.5 3.8 290 -999
2011-07-18 06:56:31 51°13.666 2°55.901 108.7 3.8 291 -999
2011-07-18 06:56:36 51°13.668 2°55.892 109 3.8 290 -999
2011-07-18 06:56:40 51°13.67 2°55.886 108.9 4 291 -999
2011-07-18 06:56:46 51°13.672 2°55.876 108.7 4 291 -999
2011-07-18 06:56:51 51°13.674 2°55.868 108.4 4 291 -999
2011-07-18 06:56:56 51°13.676 2°55.86 108.1 3.9 290 -999
2011-07-18 06:57:00 51°13.677 2°55.853 107.4 3.8 290 -999
2011-07-18 06:57:06 51°13.679 2°55.844 106.5 3.7 289 -999
2011-07-18 06:57:11 51°13.681 2°55.836 105.2 3.6 289 -999
2011-07-18 06:57:16 51°13.683 2°55.829 103.5 3.6 287 -999
2011-07-18 06:57:21 51°13.684 2°55.821 101.8 3.5 286 -999
2011-07-18 06:57:26 51°13.685 2°55.814 100.5 3.4 285 -999
2011-07-18 06:57:31 51°13.686 2°55.806 99 3.3 284 -999
2011-07-18 06:57:36 51°13.687 2°55.799 97.2 3.2 281 -999
2011-07-18 06:57:40 51°13.687 2°55.794 95.7 3.1 282 -999
2011-07-18 06:57:46 51°13.689 2°55.785 94.4 3 281 -999
2011-07-18 06:57:51 51°13.689 2°55.779 92.8 2.9 283 -999
2011-07-18 06:57:56 51°13.69 2°55.774 91 2.4 283 -999
2011-07-18 06:58:00 51°13.691 2°55.771 89.8 1.8 283 -999
2011-07-18 06:58:06 51°13.691 2°55.768 87 1.2 295 -999
2011-07-18 06:58:11 51°13.692 2°55.767 82.9 0.6 319 4.8
2011-07-18 06:58:16 51°13.692 2°55.767 77.7 0.5 2 -999
2011-07-18 06:58:20 51°13.693 2°55.767 71.6 0.6 15 -999
2011-07-18 06:58:26 51°13.694 2°55.768 66 0.7 22 -999
2011-07-18 06:58:31 51°13.695 2°55.769 61.1 0.8 31 -999
2011-07-18 06:58:36 51°13.696 2°55.77 56.2 0.9 31 -999
2011-07-18 06:58:40 51°13.697 2°55.77 53 1 31 -999
2011-07-18 06:58:46 51°13.698 2°55.771 49.9 0.9 20 -999
2011-07-18 06:58:51 51°13.699 2°55.771 46.5 0.6 11 -999
2011-07-18 06:58:56 51°13.7 2°55.771 43.3 0.3 339 -999
2011-07-18 06:59:00 51°13.7 2°55.77 39.3 0.3 291 -999
2011-07-18 06:59:06 51°13.7 2°55.769 37 0.5 249 -999
2011-07-18 06:59:11 51°13.699 2°55.768 34.2 0.7 234 -999
2011-07-18 06:59:16 51°13.698 2°55.766 32 1 228 -999
2011-07-18 06:59:20 51°13.697 2°55.764 30 1.3 221 -999
2011-07-18 06:59:26 51°13.695 2°55.762 28.1 1.4 217 -999
2011-07-18 06:59:31 51°13.693 2°55.76 25.9 1.4 214 -999
2011-07-18 06:59:36 51°13.692 2°55.758 24.2 1.3 215 -999
2011-07-18 06:59:40 51°13.691 2°55.757 22.6 1.1 218 -999
2011-07-18 06:59:46 51°13.69 2°55.756 21.4 0.5 219 -999
2011-07-18 06:59:51 51°13.691 2°55.756 18.9 0.4 315 -999
2011-07-18 06:59:56 51°13.692 2°55.756 14.6 1 358 4.9
2011-07-18 07:00:00 51°13.694 2°55.756 9.1 1.7 358 -999
2011-07-18 07:00:06 51°13.698 2°55.755 3.8 2.4 353 -999
2011-07-18 07:00:11 51°13.702 2°55.753 355.9 3 348 4.8
2011-07-18 07:00:16 51°13.707 2°55.751 351.4 3.8 344 -999
2011-07-18 07:00:20 51°13.712 2°55.749 347.2 4.4 340 -999
2011-07-18 07:00:26 51°13.72 2°55.743 341.6 5 336 -999
2011-07-18 07:00:31 51°13.727 2°55.738 337.2 5.5 333 -999
2011-07-18 07:00:36 51°13.734 2°55.732 334.9 5.9 333 -999
2011-07-18 07:00:40 51°13.74 2°55.726 333.6 6.3 331 -999
2011-07-18 07:00:46 51°13.749 2°55.717 331.6 6.6 329 -999
2011-07-18 07:00:51 51°13.758 2°55.709 330.7 6.9 329 -999
2011-07-18 07:00:56 51°13.766 2°55.701 329.9 7.1 327 11
2011-07-18 07:01:00 51°13.773 2°55.694 329.5 7.4 329 -999
2011-07-18 07:01:06 51°13.784 2°55.683 329.5 7.6 328 -999
2011-07-18 07:01:11 51°13.793 2°55.674 329.4 7.7 329 -999
2011-07-18 07:01:16 51°13.803 2°55.665 329.9 7.9 329 10.7
2011-07-18 07:01:20 51°13.81 2°55.658 330.6 8.1 331 -999
2011-07-18 07:01:25 51°13.82 2°55.65 331.2 8.1 331 -999
2011-07-18 07:01:31 51°13.832 2°55.639 331.9 8.3 332 -999
2011-07-18 07:01:36 51°13.843 2°55.631 332.7 8.4 333 -999
2011-07-18 07:01:40 51°13.851 2°55.624 333.2 8.4 333 -999
2011-07-18 07:01:46 51°13.864 2°55.614 333.8 8.5 333 -999
2011-07-18 07:01:51 51°13.875 2°55.605 334.4 8.6 334 -999
2011-07-18 07:01:56 51°13.885 2°55.597 335.1 8.7 334 -999
2011-07-18 07:02:01 51°13.896 2°55.588 334.9 8.7 333 -999
2011-07-18 07:02:06 51°13.907 2°55.58 334.7 8.8 335 -999
2011-07-18 07:02:11 51°13.918 2°55.572 335.4 8.8 335 10.6
2011-07-18 07:02:16 51°13.929 2°55.564 336.7 8.9 336 -999
2011-07-18 07:02:20 51°13.938 2°55.558 337.9 8.9 337 -999
2011-07-18 07:02:26 51°13.952 2°55.548 338.3 9 337 -999
2011-07-18 07:02:31 51°13.963 2°55.541 338.1 8.9 336 -999
2011-07-18 07:02:36 51°13.975 2°55.532 337.4 9 336 -999
2011-07-18 07:02:40 51°13.984 2°55.526 336.5 9 336 -999
2011-07-18 07:02:46 51°13.997 2°55.516 336.4 9 336 -999
2011-07-18 07:02:51 51°14.009 2°55.508 336.9 9 336 -999
2011-07-18 07:02:56 51°14.02 2°55.499 337 9 336 10.6
2011-07-18 07:03:00 51°14.029 2°55.493 336.9 9.1 336 10.7
2011-07-18 07:03:05 51°14.041 2°55.484 336.5 9.1 336 10.6
2011-07-18 07:03:11 51°14.055 2°55.475 336.4 9.1 336 10.7
2011-07-18 07:03:16 51°14.066 2°55.467 337.3 9.1 337 -999
2011-07-18 07:03:20 51°14.075 2°55.461 337.6 9.1 336 -999
2011-07-18 07:03:26 51°14.089 2°55.451 337.6 9.1 337 -999
2011-07-18 07:03:31 51°14.101 2°55.443 337.9 9.1 336 10.7
2011-07-18 07:03:36 51°14.112 2°55.435 338.2 9.1 336 -999
2011-07-18 07:03:40 51°14.121 2°55.428 337.7 9.2 335 -999
2011-07-18 07:03:46 51°14.136 2°55.418 337.2 9.3 335 -999
2011-07-18 07:03:51 51°14.147 2°55.409 336.5 9.3 334 -999
2011-07-18 07:03:56 51°14.158 2°55.399 335.4 9.3 333 -999
2011-07-18 07:04:01 51°14.17 2°55.39 334.7 9.3 332 -999
2011-07-18 07:04:06 51°14.182 2°55.38 333.9 9.4 332 -999
2011-07-18 07:04:11 51°14.193 2°55.369 332.6 9.5 330 -999
2011-07-18 07:04:16 51°14.204 2°55.358 331.8 9.5 330 -999
2011-07-18 07:04:21 51°14.215 2°55.348 331.6 9.6 330 -999
2011-07-18 07:04:26 51°14.226 2°55.336 330.9 9.6 328 10.6
2011-07-18 07:04:31 51°14.237 2°55.325 330.4 9.6 329 -999
2011-07-18 07:04:36 51°14.25 2°55.315 330.4 9.6 328 -999
2011-07-18 07:04:40 51°14.259 2°55.307 330 9.7 328 -999
2011-07-18 07:04:46 51°14.273 2°55.293 329.7 9.7 328 -999
2011-07-18 07:04:51 51°14.285 2°55.281 329.5 9.8 328 10.5
2011-07-18 07:04:56 51°14.296 2°55.269 329.3 9.8 328 10.9
2011-07-18 07:05:00 51°14.304 2°55.259 329.1 9.9 326 10.3
2011-07-18 07:05:04 51°14.314 2°55.249 328.1 9.9 326 10.7
2011-07-18 07:05:10 51°14.328 2°55.234 326.7 10 325 -999
2011-07-18 07:05:15 51°14.34 2°55.221 326.1 10.1 326 11.1
2011-07-18 07:05:20 51°14.351 2°55.209 326.7 10.2 326 10.5
2011-07-18 07:05:25 51°14.363 2°55.196 327.4 10.3 326 10
2011-07-18 07:05:30 51°14.374 2°55.182 327.3 10.4 325 10.6
2011-07-18 07:05:35 51°14.386 2°55.17 326.8 10.4 326 10.7
2011-07-18 07:05:40 51°14.398 2°55.157 327.1 10.5 327 10.7
2011-07-18 07:05:44 51°14.408 2°55.146 328.1 10.7 327 -999
2011-07-18 07:05:49 51°14.42 2°55.133 328.4 10.8 327 -999
2011-07-18 07:05:54 51°14.433 2°55.12 328.3 10.9 327 10.7
2011-07-18 07:05:59 51°14.445 2°55.107 328 10.9 327 10.5
2011-07-18 07:06:04 51°14.458 2°55.094 327.5 10.9 327 11.4
2011-07-18 07:06:08 51°14.468 2°55.083 327.8 11.1 327 10.6
2011-07-18 07:06:13 51°14.481 2°55.07 327.8 11.1 327 11.4
2011-07-18 07:06:18 51°14.494 2°55.056 327.3 11.2 326 10.5
2011-07-18 07:06:23 51°14.507 2°55.042 326.8 11.3 325 10.7
2011-07-18 07:06:28 51°14.52 2°55.028 326 11.3 325 11.2
2011-07-18 07:06:32 51°14.53 2°55.016 325.5 11.4 324 11.2
2011-07-18 07:06:37 51°14.542 2°55 324.4 11.5 322 11.3
2011-07-18 07:06:43 51°14.557 2°54.98 323.1 11.7 319 11.4
2011-07-18 07:06:48 51°14.569 2°54.962 321.7 11.9 317 11.8
2011-07-18 07:06:52 51°14.578 2°54.946 320.1 12.2 314 11.4
2011-07-18 07:06:56 51°14.587 2°54.93 318.5 12.5 313 11.5
2011-07-18 07:07:02 51°14.602 2°54.906 317.7 12.4 313 11.6
2011-07-18 07:07:08 51°14.616 2°54.883 318.6 12.5 316 11.4
2011-07-18 07:07:12 51°14.627 2°54.868 320.9 12.6 317 10.8
2011-07-18 07:07:16 51°14.637 2°54.853 322.7 12.6 320 10.9
2011-07-18 07:07:22 51°14.654 2°54.833 325.7 12.6 324 11
2011-07-18 07:07:28 51°14.671 2°54.814 327.8 12.7 325 11.2
2011-07-18 07:07:32 51°14.683 2°54.802 331 12.6 328 10.8
2011-07-18 07:07:36 51°14.696 2°54.791 333.4 12.5 329 10.9
2011-07-18 07:07:42 51°14.715 2°54.775 336.1 12.6 332 11.1
2011-07-18 07:07:48 51°14.733 2°54.759 336.9 12.6 331 11
2011-07-18 07:07:52 51°14.746 2°54.75 337.9 12.6 334 11
2011-07-18 07:07:56 51°14.758 2°54.74 339 12.6 334 11.1
2011-07-18 07:08:02 51°14.778 2°54.725 339.8 12.8 335 11.4
2011-07-18 07:08:08 51°14.797 2°54.71 339.7 12.8 333 11.3
2011-07-18 07:08:12 51°14.809 2°54.7 338.6 12.7 334 11.5
2011-07-18 07:08:18 51°14.828 2°54.684 337.9 12.8 332 11
2011-07-18 07:08:23 51°14.843 2°54.67 336.6 12.8 332 11.2
2011-07-18 07:08:28 51°14.859 2°54.658 336.8 12.9 333 11.1
2011-07-18 07:08:32 51°14.871 2°54.647 336.9 12.8 332 11.3
2011-07-18 07:08:38 51°14.89 2°54.632 336.8 12.7 334 11.7
2011-07-18 07:08:43 51°14.906 2°54.62 336.6 12.6 333 11
2011-07-18 07:08:48 51°14.921 2°54.606 337.1 12.7 332 -999
2011-07-18 07:08:52 51°14.934 2°54.595 335.6 12.7 331 11.6
2011-07-18 07:08:57 51°14.949 2°54.582 335.3 12.6 332 11
2011-07-18 07:09:02 51°14.965 2°54.569 335.7 12.6 332 10.4
2011-07-18 07:09:08 51°14.983 2°54.553 335.3 12.6 331 10.4
2011-07-18 07:09:12 51°14.995 2°54.543 334.6 12.7 332 9.9
2011-07-18 07:09:17 51°15.01 2°54.529 334.5 12.6 331 9.8
2011-07-18 07:09:22 51°15.026 2°54.516 334.7 12.6 331 9.5
2011-07-18 07:09:28 51°15.044 2°54.499 334.7 12.6 330 9.3
2011-07-18 07:09:32 51°15.057 2°54.489 334.5 12.5 332 9
2011-07-18 07:09:37 51°15.072 2°54.476 335.3 12.5 333 9
2011-07-18 07:09:42 51°15.088 2°54.464 336.4 12.5 335 8.9
2011-07-18 07:09:48 51°15.107 2°54.452 337.7 12.5 338 9.2
2011-07-18 07:09:52 51°15.12 2°54.444 340.1 12.4 340 8.9
2011-07-18 07:09:57 51°15.136 2°54.436 342.7 12.3 342 8.3
2011-07-18 07:10:02 51°15.153 2°54.429 345 12.3 345 8
2011-07-18 07:10:08 51°15.173 2°54.422 346.9 12.3 347 8.6
2011-07-18 07:10:12 51°15.187 2°54.417 348.7 12.3 347 8.5
2011-07-18 07:10:17 51°15.203 2°54.411 349.8 12.2 350 8.1
2011-07-18 07:10:22 51°15.22 2°54.406 352 12.3 349 8.2
2011-07-18 07:10:28 51°15.24 2°54.401 352.9 12.3 352 8.7
2011-07-18 07:10:32 51°15.254 2°54.398 354.3 12.4 353 8.5
2011-07-18 07:10:37 51°15.271 2°54.396 356.5 12.4 354 8.2
2011-07-18 07:10:42 51°15.288 2°54.392 356.2 12.4 353 8.8
2011-07-18 07:10:48 51°15.309 2°54.39 357.5 12.5 357 8.9
2011-07-18 07:10:52 51°15.323 2°54.386 357.8 12.7 352 8.4
2011-07-18 07:10:57 51°15.34 2°54.385 358.3 12.6 357 8.5
2011-07-18 07:11:02 51°15.357 2°54.382 358.2 12.8 353 8.9
2011-07-18 07:11:08 51°15.379 2°54.379 357.7 12.7 356 8.8
2011-07-18 07:11:12 51°15.392 2°54.376 357.6 12.6 353 8.8
2011-07-18 07:11:17 51°15.41 2°54.373 357.2 12.7 354 9.1
2011-07-18 07:11:22 51°15.427 2°54.37 356.5 12.6 353 8.9
2011-07-18 07:11:28 51°15.448 2°54.366 356.8 12.6 354 8.6
2011-07-18 07:11:32 51°15.462 2°54.364 357.2 12.8 353 9
2011-07-18 07:11:37 51°15.48 2°54.361 355.9 12.7 354 8.9
2011-07-18 07:11:42 51°15.497 2°54.357 355.7 12.8 354 9.1
2011-07-18 07:11:48 51°15.518 2°54.354 356.8 13 353 9.4
2011-07-18 07:11:52 51°15.532 2°54.35 355.1 12.8 351 9.1
2011-07-18 07:11:57 51°15.55 2°54.348 355.5 12.8 354 9.1
2011-07-18 07:12:02 51°15.567 2°54.342 354.5 12.7 348 8.7
2011-07-18 07:12:08 51°15.588 2°54.338 353.8 12.7 353 9
2011-07-18 07:12:12 51°15.602 2°54.333 353.9 12.7 348 8.8
2011-07-18 07:12:17 51°15.619 2°54.329 352.5 12.6 350 9.4
2011-07-18 07:12:22 51°15.636 2°54.323 353.4 12.4 349 9.5
2011-07-18 07:12:28 51°15.657 2°54.317 352.1 12.5 348 9
2011-07-18 07:12:32 51°15.67 2°54.311 350.7 12.5 346 9.8
2011-07-18 07:12:37 51°15.687 2°54.304 349.9 12.4 347 9.6
2011-07-18 07:12:42 51°15.704 2°54.3 350.6 12.5 349 9.7
2011-07-18 07:12:48 51°15.725 2°54.294 351.9 12.4 350 9.7
2011-07-18 07:12:52 51°15.738 2°54.291 353.6 12.3 352 9.4
2011-07-18 07:12:57 51°15.755 2°54.287 355.6 12.3 354 9.7
2011-07-18 07:13:02 51°15.772 2°54.285 357.2 12.2 357 9.6
2011-07-18 07:13:08 51°15.792 2°54.284 0.4 12.3 359 9.3
2011-07-18 07:13:12 51°15.806 2°54.285 2.5 12.3 1 9.5
2011-07-18 07:13:17 51°15.823 2°54.286 4.7 12.2 4 9.9
2011-07-18 07:13:22 51°15.839 2°54.291 8.4 12.3 9 10
2011-07-18 07:13:28 51°15.86 2°54.294 10.2 12.4 6 9.6
2011-07-18 07:13:32 51°15.873 2°54.3 13.1 12.3 13 9.5
2011-07-18 07:13:37 51°15.89 2°54.305 13.8 12.4 9 9.9
2011-07-18 07:13:43 51°15.91 2°54.312 14.6 12.1 14 10
2011-07-18 07:13:48 51°15.926 2°54.317 16.3 12.3 11 9.7
2011-07-18 07:13:52 51°15.939 2°54.324 16.8 12.3 16 10.4
2011-07-18 07:13:57 51°15.956 2°54.33 17.1 12.2 14 10
2011-07-18 07:14:03 51°15.976 2°54.338 18.9 12.2 13 9.7
2011-07-18 07:14:08 51°15.992 2°54.344 17.2 12.2 12 10
2011-07-18 07:14:12 51°16.006 2°54.348 16.6 12.1 14 9.8
2011-07-18 07:14:17 51°16.021 2°54.355 18.3 11.9 10 9.9
2011-07-18 07:14:22 51°16.037 2°54.359 15.3 11.5 10 10.1
2011-07-18 07:14:28 51°16.056 2°54.363 13.6 11.2 8 10.3
2011-07-18 07:14:32 51°16.068 2°54.366 12.6 10.9 7 10
2011-07-18 07:14:37 51°16.082 2°54.367 9.3 10 2 9.7
2011-07-18 07:14:42 51°16.095 2°54.367 6.8 9.3 358 10.2
2011-07-18 07:14:48 51°16.109 2°54.365 3 8.7 356 10.3
2011-07-18 07:14:52 51°16.118 2°54.363 359.7 8.2 354 10.8
2011-07-18 07:14:57 51°16.129 2°54.36 356.8 7.7 351 10.4
2011-07-18 07:15:02 51°16.139 2°54.356 353.8 7.4 346 10.1
2011-07-18 07:15:08 51°16.15 2°54.352 351.7 6.9 346 10.2
2011-07-18 07:15:12 51°16.157 2°54.348 349.6 6.7 343 10.9
2011-07-18 07:15:17 51°16.166 2°54.344 347.1 6.4 344 10.9
2011-07-18 07:15:22 51°16.174 2°54.34 344.7 6 341 10.4
2011-07-18 07:15:28 51°16.183 2°54.334 343.9 5.7 339 10.8
2011-07-18 07:15:32 51°16.188 2°54.33 341.8 5.4 337 10.7
2011-07-18 07:15:37 51°16.195 2°54.325 339.8 5.3 335 10.6
2011-07-18 07:15:42 51°16.201 2°54.321 338.3 4.8 336 10.4
2011-07-18 07:15:48 51°16.208 2°54.315 337.1 4.5 333 10.1
2011-07-18 07:15:52 51°16.212 2°54.312 336.2 4.5 331 10.6
2011-07-18 07:15:57 51°16.217 2°54.307 336.1 4.4 331 10.3
2011-07-18 07:16:03 51°16.224 2°54.301 335.7 4.3 330 10.1
2011-07-18 07:16:08 51°16.229 2°54.297 335.4 4.1 330 10.3
2011-07-18 07:16:12 51°16.232 2°54.294 336.2 4 332 10.5
2011-07-18 07:16:17 51°16.237 2°54.29 336.8 3.8 333 10.9
2011-07-18 07:16:22 51°16.241 2°54.286 336.2 3.5 332 10.8
2011-07-18 07:16:28 51°16.245 2°54.282 335.3 2.9 334 10.7
2011-07-18 07:16:32 51°16.248 2°54.28 335.8 2.5 332 11.1
2011-07-18 07:16:37 51°16.25 2°54.278 336.1 2.2 332 10.9
2011-07-18 07:16:42 51°16.252 2°54.276 336.5 1.7 333 10.8
2011-07-18 07:16:48 51°16.254 2°54.274 337 1.3 335 10.7
2011-07-18 07:16:52 51°16.255 2°54.274 337.4 0.9 333 11.1
2011-07-18 07:16:57 51°16.257 2°54.273 336.9 1.1 338 10.8
2011-07-18 07:17:02 51°16.258 2°54.272 336.1 0.9 324 10.2
2011-07-18 07:17:08 51°16.259 2°54.273 334.8 0.7 358 9.9
2011-07-18 07:17:12 51°16.26 2°54.272 334.6 0.4 321 10.1
2011-07-18 07:17:17 51°16.26 2°54.272 334 0.5 15 10.6
2011-07-18 07:17:22 51°16.261 2°54.272 333.7 0.4 344 10.9
2011-07-18 07:17:28 51°16.262 2°54.272 332.9 0.5 20 10.9
2011-07-18 07:17:32 51°16.262 2°54.272 332.3 0.2 329 11
2011-07-18 07:17:37 51°16.262 2°54.272 331.4 0.4 1 10.9
2011-07-18 07:17:42 51°16.263 2°54.272 330.4 0.3 6 10.8
2011-07-18 07:17:48 51°16.263 2°54.272 330.2 0.3 9 10.7
2011-07-18 07:17:52 51°16.263 2°54.272 329.5 0.2 5 10.7
2011-07-18 07:17:57 51°16.264 2°54.272 329.2 0.2 352 10.5
2011-07-18 07:18:02 51°16.264 2°54.272 328.9 0.2 -999 10.3
2011-07-18 07:18:08 51°16.265 2°54.272 329 0.3 7 10.3
2011-07-18 07:18:12 51°16.265 2°54.273 328.5 0.3 3 10.5
2011-07-18 07:18:17 51°16.266 2°54.273 328.4 0.3 353 10.5
2011-07-18 07:18:23 51°16.267 2°54.273 328.1 0.4 10 10.4
2011-07-18 07:18:28 51°16.267 2°54.274 327.2 0.5 38 11
2011-07-18 07:18:32 51°16.267 2°54.273 326 0.1 15 11
2011-07-18 07:18:37 51°16.267 2°54.274 326 0.3 18 10.6
2011-07-18 07:18:42 51°16.268 2°54.274 326.8 0.3 28 10.6
2011-07-18 07:18:48 51°16.268 2°54.275 327.3 0.5 31 10.8
2011-07-18 07:18:52 51°16.268 2°54.274 326.8 0.2 16 10.7
2011-07-18 07:18:57 51°16.268 2°54.275 326.8 0.2 25 10.6
2011-07-18 07:19:02 51°16.269 2°54.275 327.2 0.2 14 10.2
2011-07-18 07:19:08 51°16.269 2°54.275 327.1 0.4 30 10.4
2011-07-18 07:19:12 51°16.269 2°54.275 327.1 0.4 29 10.9
2011-07-18 07:19:17 51°16.269 2°54.276 326.9 0.4 51 10.9
2011-07-18 07:19:22 51°16.269 2°54.276 328 0.3 57 11
2011-07-18 07:19:28 51°16.27 2°54.277 329.2 0.2 59 10.8
2011-07-18 07:19:32 51°16.27 2°54.277 330.3 0.1 63 10.6
2011-07-18 07:19:37 51°16.27 2°54.278 331.5 0.3 68 10.7
2011-07-18 07:19:42 51°16.27 2°54.278 331.8 0.2 58 10.4
2011-07-18 07:19:48 51°16.271 2°54.279 332.5 0.3 47 10.4
2011-07-18 07:19:52 51°16.271 2°54.28 332.9 0.6 46 10.7
2011-07-18 07:19:57 51°16.271 2°54.28 332.4 0.4 52 10.5
2011-07-18 07:20:03 51°16.271 2°54.281 332.2 0.2 70 10.6
2011-07-18 07:20:07 51°16.271 2°54.281 332.9 0.3 77 10.5
2011-07-18 07:20:12 51°16.271 2°54.282 333.6 0.2 99 10.9
2011-07-18 07:20:17 51°16.272 2°54.282 333.6 0.2 72 10.7
2011-07-18 07:20:23 51°16.272 2°54.283 334 0.3 75 10.6
2011-07-18 07:20:27 51°16.272 2°54.283 334.7 0.2 80 10.4
2011-07-18 07:20:32 51°16.272 2°54.284 335.2 0.2 65 10.4
2011-07-18 07:20:36 51°16.272 2°54.284 335.5 0.2 70 10.6
2011-07-18 07:20:42 51°16.272 2°54.284 336 0.2 84 10.3
2011-07-18 07:20:48 51°16.272 2°54.285 336 -999 101 10
2011-07-18 07:20:52 51°16.272 2°54.286 336.3 0.6 58 10.2
2011-07-18 07:20:57 51°16.272 2°54.286 336.2 0.2 51 10.9
2011-07-18 07:21:02 51°16.272 2°54.287 335.5 0.4 69 10.8
2011-07-18 07:21:08 51°16.273 2°54.287 335.5 0.2 85 10.6
2011-07-18 07:21:12 51°16.273 2°54.288 336.1 0.1 86 10.3
2011-07-18 07:21:16 51°16.273 2°54.288 336.7 0.2 87 10.2
2011-07-18 07:21:22 51°16.274 2°54.289 336.9 0.1 191 10
2011-07-18 07:21:28 51°16.274 2°54.29 337.1 0.3 76 10.1
2011-07-18 07:21:32 51°16.274 2°54.29 336.5 0.3 75 10.5
2011-07-18 07:21:36 51°16.274 2°54.29 336.1 -999 95 10.4
2011-07-18 07:21:42 51°16.274 2°54.291 336.1 0.2 73 10.3
2011-07-18 07:21:47 51°16.274 2°54.291 336.3 0.1 67 10.6
2011-07-18 07:21:52 51°16.274 2°54.291 335.8 0.1 41 10.5
2011-07-18 07:21:57 51°16.274 2°54.291 335.8 0.4 44 10.9
2011-07-18 07:22:03 51°16.274 2°54.292 335.4 0.3 41 11.1
2011-07-18 07:22:07 51°16.274 2°54.292 334.8 0.1 353 10.7
2011-07-18 07:22:12 51°16.274 2°54.292 335.4 0.2 35 10.4
2011-07-18 07:22:16 51°16.275 2°54.292 335.4 0.2 22 10.2
2011-07-18 07:22:22 51°16.275 2°54.292 335.1 0.3 55 10.6
2011-07-18 07:22:28 51°16.275 2°54.292 334.4 0.1 259 10.6
2011-07-18 07:22:32 51°16.275 2°54.292 334.2 0.2 34 10.5
2011-07-18 07:22:36 51°16.275 2°54.293 334 0.1 16 10.4
2011-07-18 07:22:42 51°16.275 2°54.292 333.8 0.2 70 10.6
2011-07-18 07:22:48 51°16.275 2°54.293 333.2 0.2 93 10.8
2011-07-18 07:22:52 51°16.275 2°54.293 333.1 0.2 71 11
2011-07-18 07:22:57 51°16.276 2°54.293 333.3 0.1 5 10.6
2011-07-18 07:23:03 51°16.276 2°54.293 333.7 0.4 333 10.4
2011-07-18 07:23:08 51°16.278 2°54.293 334.4 0.7 356 10.4
2011-07-18 07:23:12 51°16.279 2°54.292 334 1 339 10.4
2011-07-18 07:23:16 51°16.28 2°54.291 333.4 1.3 339 10.4
2011-07-18 07:23:22 51°16.282 2°54.29 332.9 1.9 341 11.1
2011-07-18 07:23:28 51°16.286 2°54.289 331.7 2.3 346 11.6
2011-07-18 07:23:32 51°16.288 2°54.287 330.4 2.1 336 11.3
2011-07-18 07:23:36 51°16.29 2°54.285 331.2 2.7 330 10.9
2011-07-18 07:23:42 51°16.295 2°54.28 331.6 3.1 325 10.3
2011-07-18 07:23:47 51°16.299 2°54.276 329.3 3.5 328 10.2
2011-07-18 07:23:52 51°16.304 2°54.271 327.4 4 321 10.5
2011-07-18 07:23:56 51°16.307 2°54.266 324.9 4.4 323 10.6
2011-07-18 07:24:02 51°16.313 2°54.258 322.4 4.8 318 10.8
2011-07-18 07:24:07 51°16.318 2°54.25 320.2 5.2 316 10.5
2011-07-18 07:24:12 51°16.324 2°54.242 318.2 5.4 313 10.4
2011-07-18 07:24:16 51°16.328 2°54.234 316 5.6 312 10.5
2011-07-18 07:24:22 51°16.334 2°54.223 314.3 6 310 10.9
2011-07-18 07:24:27 51°16.34 2°54.212 311.9 6.4 308 10.5
2011-07-18 07:24:32 51°16.345 2°54.2 309.7 6.7 307 10.4
2011-07-18 07:24:36 51°16.35 2°54.19 307.8 7.1 305 11
2011-07-18 07:24:42 51°16.356 2°54.173 306 7.5 303 10.6
2011-07-18 07:24:48 51°16.363 2°54.155 304.8 7.9 301 10.6
2011-07-18 07:24:52 51°16.368 2°54.142 302 8.2 299 11
2011-07-18 07:24:57 51°16.373 2°54.126 299.4 8.7 297 10.7
2011-07-18 07:25:03 51°16.38 2°54.104 297.7 9 294 10.7
2011-07-18 07:25:08 51°16.385 2°54.084 295.4 9.5 293 10.7
2011-07-18 07:25:12 51°16.389 2°54.068 293.2 9.6 291 10.1
2011-07-18 07:25:16 51°16.393 2°54.052 292.6 9.8 293 10.7
2011-07-18 07:25:22 51°16.399 2°54.028 293.5 10.2 292 11.1
2011-07-18 07:25:28 51°16.406 2°54.003 294 10.4 293 10.6
2011-07-18 07:25:32 51°16.41 2°53.985 294.2 10.6 293 10.5
2011-07-18 07:25:37 51°16.416 2°53.963 295.1 10.9 294 10.8
2011-07-18 07:25:42 51°16.423 2°53.941 295.5 11.1 294 11.2
2011-07-18 07:25:47 51°16.429 2°53.918 296.2 11.2 295 10.7
2011-07-18 07:25:52 51°16.436 2°53.895 296.4 11.4 293 11
2011-07-18 07:25:56 51°16.441 2°53.877 296.2 11.6 295 10.9
2011-07-18 07:26:02 51°16.45 2°53.849 296.9 11.7 296 11.1
2011-07-18 07:26:08 51°16.458 2°53.82 297.3 11.8 296 11
2011-07-18 07:26:12 51°16.465 2°53.802 298.4 11.9 298 10.8
2011-07-18 07:26:16 51°16.471 2°53.784 300.3 11.9 300 11
2011-07-18 07:26:22 51°16.481 2°53.757 301.3 11.9 301 11.2
2011-07-18 07:26:28 51°16.491 2°53.729 301.5 12 300 11.2
2011-07-18 07:26:32 51°16.498 2°53.711 302 12 300 11
2011-07-18 07:26:37 51°16.506 2°53.688 302.1 12 301 11.2
2011-07-18 07:26:42 51°16.515 2°53.665 302.7 11.8 303 10.6
2011-07-18 07:26:48 51°16.526 2°53.64 303.9 11.9 305 11.1
2011-07-18 07:26:52 51°16.534 2°53.622 305.9 11.9 305 10.9
2011-07-18 07:26:56 51°16.542 2°53.605 307.1 11.9 306 11.2
2011-07-18 07:27:02 51°16.554 2°53.58 308 12 307 11.2
2011-07-18 07:27:08 51°16.566 2°53.554 308.8 12.1 307 11.5
2011-07-18 07:27:12 51°16.574 2°53.538 309.5 12 309 10.7
2011-07-18 07:27:16 51°16.582 2°53.522 310 11.7 309 10.8
2011-07-18 07:27:22 51°16.594 2°53.498 311.1 11.8 310 11.7
2011-07-18 07:27:28 51°16.608 2°53.474 312.5 11.8 311 11.4
2011-07-18 07:27:32 51°16.616 2°53.458 312.9 11.8 310 11.2
2011-07-18 07:27:36 51°16.624 2°53.441 313.1 12.1 311 11
2011-07-18 07:27:42 51°16.638 2°53.417 313.3 12.2 311 10.9
2011-07-18 07:27:48 51°16.652 2°53.393 313.8 12.4 312 11
2011-07-18 07:27:52 51°16.662 2°53.377 314.4 12.5 313 11
2011-07-18 07:27:56 51°16.671 2°53.361 314.7 12.3 315 10.6
2011-07-18 07:28:02 51°16.686 2°53.339 316.3 12.5 316 11.2
2011-07-18 07:28:07 51°16.698 2°53.319 318.2 12.4 318 10.6
2011-07-18 07:28:12 51°16.711 2°53.301 320.2 12.3 319 10.6
2011-07-18 07:28:16 51°16.722 2°53.287 322.3 12.5 321 11.1
2011-07-18 07:28:22 51°16.738 2°53.267 323.5 12.5 321 10.7
2011-07-18 07:28:28 51°16.755 2°53.246 323.7 12.5 323 10.5
2011-07-18 07:28:32 51°16.766 2°53.233 325.4 12.5 324 10.9
2011-07-18 07:28:36 51°16.777 2°53.22 326.4 12.5 326 10.4
2011-07-18 07:28:42 51°16.794 2°53.202 327.9 12.5 326 10.3
2011-07-18 07:28:48 51°16.812 2°53.183 328.6 12.5 327 10.1
2011-07-18 07:28:52 51°16.823 2°53.171 329.2 12.4 327 9.5
2011-07-18 07:28:56 51°16.835 2°53.16 329.9 12.4 327 9.4
2011-07-18 07:29:02 51°16.852 2°53.142 329.2 12.3 327 8.4
2011-07-18 07:29:08 51°16.869 2°53.124 330 12.3 328 8.4
2011-07-18 07:29:12 51°16.88 2°53.112 329.8 12.2 325 8.1
2011-07-18 07:29:16 51°16.892 2°53.101 328.8 11.9 327 7.5
2011-07-18 07:29:22 51°16.908 2°53.082 327.5 12 323 7.8
2011-07-18 07:29:28 51°16.924 2°53.063 327 12.1 324 7.9
2011-07-18 07:29:32 51°16.935 2°53.05 325.6 12.1 322 5.9
2011-07-18 07:29:37 51°16.947 2°53.033 324 12.1 322 8.5
2011-07-18 07:29:42 51°16.961 2°53.016 323.2 12.1 322 7.9
2011-07-18 07:29:48 51°16.976 2°52.995 322.8 12.2 319 6
2011-07-18 07:29:52 51°16.986 2°52.98 321.4 12.4 319 8.1
2011-07-18 07:29:56 51°16.996 2°52.966 320.2 12.3 318 8
2011-07-18 07:30:02 51°17.012 2°52.944 320.2 12.5 319 8.6
2011-07-18 07:30:08 51°17.028 2°52.923 319.9 12.5 319 8.3
2011-07-18 07:30:12 51°17.038 2°52.908 320 12.5 320 8.7
2011-07-18 07:30:16 51°17.049 2°52.894 320.9 12.5 317 8.7
2011-07-18 07:30:22 51°17.064 2°52.872 320.4 12.6 319 8.8
2011-07-18 07:30:27 51°17.077 2°52.853 320.2 12.6 319 9
2011-07-18 07:30:32 51°17.091 2°52.835 320.4 12.6 319 9.4
2011-07-18 07:30:36 51°17.101 2°52.82 319.9 12.6 320 9.8
2011-07-18 07:30:42 51°17.117 2°52.799 320.2 12.4 320 9.4
2011-07-18 07:30:48 51°17.133 2°52.778 320.6 12.4 320 9.2
2011-07-18 07:30:52 51°17.143 2°52.763 320.7 12.3 317 9.1
2011-07-18 07:30:56 51°17.153 2°52.748 318.8 12.3 317 9.2
2011-07-18 07:31:02 51°17.168 2°52.726 319.4 12.3 317 9
2011-07-18 07:31:08 51°17.183 2°52.704 319.4 12.3 318 9.3
2011-07-18 07:31:12 51°17.193 2°52.69 319.4 12.4 318 9.2
2011-07-18 07:31:16 51°17.204 2°52.675 319.8 12.2 321 8.9
2011-07-18 07:31:22 51°17.219 2°52.655 321 12.5 320 9.7
2011-07-18 07:31:28 51°17.236 2°52.635 322.3 12.2 324 9.7
2011-07-18 07:31:32 51°17.247 2°52.623 323.4 12.2 325 9.3
2011-07-18 07:31:36 51°17.258 2°52.609 326.4 12.3 324 9.3
2011-07-18 07:31:42 51°17.275 2°52.591 326.2 12.4 326 9.5
2011-07-18 07:31:48 51°17.292 2°52.572 327.2 12.4 326 9.4
2011-07-18 07:31:52 51°17.304 2°52.561 328.6 12.4 328 9
2011-07-18 07:31:56 51°17.315 2°52.55 329.8 12.4 329 9.3
2011-07-18 07:32:03 51°17.336 2°52.53 330.9 12.5 329 9.3
2011-07-18 07:32:08 51°17.351 2°52.517 331.6 12.5 330 9.7
2011-07-18 07:32:12 51°17.363 2°52.505 331.8 12.5 329 9.5
2011-07-18 07:32:16 51°17.375 2°52.495 332.9 12.5 332 10
2011-07-18 07:32:22 51°17.393 2°52.478 333.6 12.5 330 9.8
2011-07-18 07:32:28 51°17.412 2°52.463 333.6 12.5 331 9.5
2011-07-18 07:32:32 51°17.424 2°52.452 332.6 12.4 331 10.3
2011-07-18 07:32:36 51°17.436 2°52.441 332.4 12.5 333 10
2011-07-18 07:32:42 51°17.454 2°52.426 333.4 12.4 333 9.7
2011-07-18 07:32:48 51°17.473 2°52.411 334.4 12.5 334 10.1
2011-07-18 07:32:52 51°17.485 2°52.402 336.1 12.4 335 9.5
2011-07-18 07:32:56 51°17.498 2°52.394 337.4 12.4 338 9.3
2011-07-18 07:33:02 51°17.517 2°52.381 339.9 12.4 337 9.3
2011-07-18 07:33:08 51°17.537 2°52.371 341.5 12.3 341 9
2011-07-18 07:33:12 51°17.55 2°52.364 342.8 12.3 342 9.5
2011-07-18 07:33:16 51°17.563 2°52.357 344.5 12.4 345 9.9
2011-07-18 07:33:22 51°17.582 2°52.348 346.2 12.4 341 9.5
2011-07-18 07:33:28 51°17.602 2°52.338 344.9 12.4 344 9.7
2011-07-18 07:33:32 51°17.615 2°52.333 346.1 12.3 345 9.4
2011-07-18 07:33:38 51°17.635 2°52.324 346.6 12.3 343 10
2011-07-18 07:33:42 51°17.648 2°52.318 346.3 12.3 344 10.1
2011-07-18 07:33:48 51°17.668 2°52.309 346.5 12.2 344 10
2011-07-18 07:33:52 51°17.681 2°52.302 345.6 12.2 343 9.2
2011-07-18 07:33:56 51°17.694 2°52.295 345.8 12.3 341 9.6
2011-07-18 07:34:02 51°17.712 2°52.284 343.9 12.3 341 9.8
2011-07-18 07:34:08 51°17.732 2°52.273 342.7 12.3 339 10
2011-07-18 07:34:12 51°17.744 2°52.264 342 12.3 338 10.4
2011-07-18 07:34:17 51°17.76 2°52.254 341.2 12.4 336 10
2011-07-18 07:34:22 51°17.776 2°52.243 338.6 12.3 336 10.2
2011-07-18 07:34:28 51°17.794 2°52.23 338.3 12.3 337 10.5
2011-07-18 07:34:32 51°17.807 2°52.221 338.7 12.3 337 10.8
2011-07-18 07:34:36 51°17.819 2°52.213 337.6 12.1 336 10.2
2011-07-18 07:34:42 51°17.837 2°52.198 337.2 12.1 333 10.3
2011-07-18 07:34:48 51°17.855 2°52.184 336.5 12.2 333 10.3
2011-07-18 07:34:52 51°17.867 2°52.173 334.8 12.3 330 10.4
2011-07-18 07:34:56 51°17.879 2°52.163 334 12.2 333 10.3
2011-07-18 07:35:02 51°17.896 2°52.146 332.3 12.3 329 10.5
2011-07-18 07:35:07 51°17.911 2°52.132 332 12.4 327 10.8
2011-07-18 07:35:12 51°17.925 2°52.118 329.5 12.3 328 10
2011-07-18 07:35:16 51°17.937 2°52.105 328.9 12.2 326 10.5
2011-07-18 07:35:22 51°17.954 2°52.087 328.5 12.3 325 11
2011-07-18 07:35:28 51°17.971 2°52.069 327.8 12.4 326 11.1
2011-07-18 07:35:32 51°17.982 2°52.056 326.4 12.4 323 10.1
2011-07-18 07:35:36 51°17.993 2°52.043 325.2 11.9 325 9.8
2011-07-18 07:35:43 51°18.012 2°52.021 325.4 12 323 -999
2011-07-18 07:35:48 51°18.025 2°52.005 324.4 11.9 321 11
2011-07-18 07:35:52 51°18.035 2°51.992 323 11.9 320 9.6
2011-07-18 07:35:56 51°18.045 2°51.978 321.9 12 319 9.9
2011-07-18 07:36:02 51°18.059 2°51.956 320.6 12 318 10.1
2011-07-18 07:36:08 51°18.074 2°51.934 319.6 12.2 317 10.5
2011-07-18 07:36:12 51°18.084 2°51.919 318.1 12.2 316 10.3
2011-07-18 07:36:16 51°18.093 2°51.904 317.2 12 316 9.5
2011-07-18 07:36:22 51°18.107 2°51.881 317.2 12.1 314 10
2011-07-18 07:36:28 51°18.121 2°51.857 315.9 12.3 314 10.6
2011-07-18 07:36:32 51°18.13 2°51.841 315.1 12.3 313 10.2
2011-07-18 07:36:36 51°18.14 2°51.825 314.4 12.3 314 10.1
2011-07-18 07:36:42 51°18.154 2°51.802 315 12.4 314 10.3
2011-07-18 07:36:48 51°18.169 2°51.778 315.3 12.5 315 10.7
2011-07-18 07:36:52 51°18.179 2°51.762 316.2 12.5 315 10.3
2011-07-18 07:36:57 51°18.191 2°51.743 316.5 12.4 315 10.4
2011-07-18 07:37:03 51°18.206 2°51.719 316.7 12.5 316 11.1
2011-07-18 07:37:08 51°18.218 2°51.7 317.2 12.5 315 10.9
2011-07-18 07:37:12 51°18.228 2°51.684 317 12.5 315 10.9
2011-07-18 07:37:16 51°18.238 2°51.668 316.6 12.5 315 10.7
2011-07-18 07:37:22 51°18.252 2°51.645 316.1 12.6 314 11.5
2011-07-18 07:37:27 51°18.264 2°51.625 315.8 12.5 314 11.2
2011-07-18 07:37:32 51°18.276 2°51.605 315 12.4 313 11
2011-07-18 07:37:36 51°18.286 2°51.589 314.8 12.5 314 11.9
2011-07-18 07:37:42 51°18.3 2°51.565 315 12.4 313 11.3
2011-07-18 07:37:47 51°18.312 2°51.545 314.8 12.3 313 11.1
2011-07-18 07:37:52 51°18.324 2°51.525 314.7 12.5 313 11.7
2011-07-18 07:37:56 51°18.333 2°51.509 314.7 12.4 313 11.3
2011-07-18 07:38:02 51°18.347 2°51.485 314.5 12.4 314 11.4
2011-07-18 07:38:07 51°18.359 2°51.465 315.1 12.5 312 11.7
2011-07-18 07:38:12 51°18.371 2°51.445 314.4 12.6 311 11.7
2011-07-18 07:38:16 51°18.381 2°51.429 314.4 12.6 312 12.1
2011-07-18 07:38:22 51°18.395 2°51.404 314.1 12.4 313 11.6
2011-07-18 07:38:27 51°18.407 2°51.384 313.7 12.5 312 12.5
2011-07-18 07:38:32 51°18.418 2°51.364 313.8 12.5 312 12
2011-07-18 07:38:36 51°18.427 2°51.347 312.7 12.3 309 11.7
2011-07-18 07:38:42 51°18.44 2°51.322 311.3 12.3 311 13
2011-07-18 07:38:48 51°18.453 2°51.297 312 12.2 311 13.3
2011-07-18 07:38:52 51°18.462 2°51.281 311.7 12.2 310 12.6
2011-07-18 07:38:57 51°18.473 2°51.26 311.9 12.3 309 12.8
2011-07-18 07:39:02 51°18.484 2°51.239 310.7 12.4 306 13
2011-07-18 07:39:08 51°18.495 2°51.212 307.7 11.8 304 12
2011-07-18 07:39:13 51°18.503 2°51.192 305.6 11.1 303 -999
2011-07-18 07:39:18 51°18.511 2°51.171 303 10.3 301 -999
2011-07-18 07:39:24 51°18.518 2°51.149 300.9 9.6 299 12.9
2011-07-18 07:39:28 51°18.523 2°51.134 299.3 9 298 13.3
2011-07-18 07:39:33 51°18.528 2°51.117 297.4 8.6 293 13.4
2011-07-18 07:39:38 51°18.533 2°51.101 295.2 7.9 294 13.7
2011-07-18 07:39:43 51°18.537 2°51.086 292.8 7 291 13
2011-07-18 07:39:48 51°18.54 2°51.073 291.3 6.4 291 12.7
2011-07-18 07:39:52 51°18.542 2°51.063 290.4 5.7 289 14
2011-07-18 07:39:56 51°18.544 2°51.053 289.2 5.2 289 13.7
2011-07-18 07:40:02 51°18.546 2°51.041 286.9 4.8 288 13.9
2011-07-18 07:40:07 51°18.548 2°51.031 285.7 4.4 291 14.3
2011-07-18 07:40:12 51°18.549 2°51.023 285.1 3.8 290 14.1
2011-07-18 07:40:16 51°18.55 2°51.018 285.5 3.4 294 13.8
2011-07-18 07:40:22 51°18.553 2°51.01 286.9 2.9 297 13.5
2011-07-18 07:40:27 51°18.555 2°51.007 288.1 2.4 296 13.2
2011-07-18 07:40:32 51°18.557 2°51.003 289.9 2.3 297 13.6
2011-07-18 07:40:36 51°18.558 2°51 291.1 2 299 13.7
2011-07-18 07:40:42 51°18.56 2°50.996 292.2 1.7 300 13.5
2011-07-18 07:40:48 51°18.561 2°50.992 293.1 1.4 302 13.4
2011-07-18 07:40:52 51°18.562 2°50.991 293.2 1.2 312 14
2011-07-18 07:40:56 51°18.563 2°50.989 293.1 1 318 13.8
2011-07-18 07:41:02 51°18.564 2°50.988 293.5 0.6 319 13.5
2011-07-18 07:41:08 51°18.564 2°50.988 294.7 0.4 335 13.2
2011-07-18 07:41:12 51°18.565 2°50.988 296.2 0.4 351 13.1
2011-07-18 07:41:16 51°18.566 2°50.988 298.7 0.6 11 13.4
2011-07-18 07:41:22 51°18.567 2°50.988 300.6 0.5 1 13.4
2011-07-18 07:41:28 51°18.568 2°50.988 303.1 0.8 7 13.6
2011-07-18 07:41:32 51°18.568 2°50.988 304.6 0.6 2 13.7
2011-07-18 07:41:36 51°18.569 2°50.988 306.3 0.6 20 14.1
2011-07-18 07:41:42 51°18.569 2°50.989 309.3 0.5 47 13.9
2011-07-18 07:41:48 51°18.57 2°50.99 313.1 0.4 37 -999
2011-07-18 07:41:53 51°18.571 2°50.99 317.6 0.4 25 -999
2011-07-18 07:41:59 51°18.572 2°50.99 321.5 0.3 25 -999
2011-07-18 07:42:04 51°18.572 2°50.991 325.4 0.4 10 -999
2011-07-18 07:42:10 51°18.573 2°50.991 326.5 0.5 18 14
2011-07-18 07:42:16 51°18.573 2°50.992 328.4 0.3 14 13.4
2011-07-18 07:42:20 51°18.574 2°50.992 331.1 0.4 30 13.6
2011-07-18 07:42:24 51°18.574 2°50.992 331.9 0.3 8 13.5
2011-07-18 07:42:29 51°18.575 2°50.992 333 0.4 11 13.6
2011-07-18 07:42:34 51°18.575 2°50.992 334.7 0.4 5 13.6
2011-07-18 07:42:39 51°18.575 2°50.993 335.7 0.3 357 13.7
2011-07-18 07:42:44 51°18.576 2°50.993 336.5 0.6 44 13.7
2011-07-18 07:42:48 51°18.576 2°50.993 337.6 0.3 3 13.1
2011-07-18 07:42:53 51°18.576 2°50.993 338.8 0.4 33 13.3
2011-07-18 07:42:58 51°18.577 2°50.993 338.5 0.2 26 13.3
2011-07-18 07:43:03 51°18.577 2°50.994 339.3 0.4 60 13.3
2011-07-18 07:43:08 51°18.578 2°50.994 340.6 0.2 358 13.3
2011-07-18 07:43:12 51°18.578 2°50.994 340.8 0.4 38 13.6
2011-07-18 07:43:16 51°18.578 2°50.995 340.3 0.2 332 13.3
2011-07-18 07:43:22 51°18.579 2°50.995 340.6 0.5 43 13.5
2011-07-18 07:43:28 51°18.579 2°50.996 341.2 0.6 43 14.2
2011-07-18 07:43:32 51°18.579 2°50.996 340.7 0.5 68 14.6
2011-07-18 07:43:36 51°18.58 2°50.996 341.4 0.3 50 13.9
2011-07-18 07:43:42 51°18.579 2°50.997 343.2 0.2 345 13.4
2011-07-18 07:43:48 51°18.58 2°50.998 342.7 0.3 42 13.4
2011-07-18 07:43:52 51°18.581 2°50.998 342 0.2 359 13.3
2011-07-18 07:43:56 51°18.581 2°50.999 341.1 0.4 34 13.4
2011-07-18 07:44:02 51°18.581 2°50.999 340.1 0.4 56 13.9
2011-07-18 07:44:07 51°18.581 2°50.999 339.9 0.2 76 13.9
2011-07-18 07:44:12 51°18.581 2°50.999 340.3 0.1 307 13.2
2011-07-18 07:44:16 51°18.582 2°51 341.2 0.1 294 12.9
2011-07-18 07:44:22 51°18.582 2°51 341 0.3 46 13.4
2011-07-18 07:44:28 51°18.582 2°51 340.1 0.2 39 13.9
2011-07-18 07:44:32 51°18.582 2°51 340.4 0.2 92 14.1
2011-07-18 07:44:36 51°18.582 2°51 340.2 0.1 141 13.8
2011-07-18 07:44:42 51°18.582 2°51.001 340.8 0.1 161 13.2
2011-07-18 07:44:48 51°18.582 2°51.001 342.3 0.1 258 13
2011-07-18 07:44:52 51°18.583 2°51.002 341.7 0.4 50 13.5
2011-07-18 07:44:56 51°18.582 2°51.002 340.2 0.3 54 13.4
2011-07-18 07:45:02 51°18.583 2°51.002 339 0.4 58 13.6
2011-07-18 07:45:08 51°18.583 2°51.003 336.9 0.1 347 13.5
2011-07-18 07:45:12 51°18.583 2°51.003 336.9 0.3 53 13.5
2011-07-18 07:45:16 51°18.583 2°51.004 336.8 0.3 41 13.1
2011-07-18 07:45:22 51°18.583 2°51.004 336.8 0.5 55 13.2
2011-07-18 07:45:28 51°18.583 2°51.004 335.7 0.1 65 13.4
2011-07-18 07:45:32 51°18.583 2°51.004 335.9 0.1 57 13.4
2011-07-18 07:45:36 51°18.584 2°51.005 336.5 0.1 50 13
2011-07-18 07:45:42 51°18.584 2°51.005 336.5 0.2 43 12.9
2011-07-18 07:45:48 51°18.584 2°51.006 336.8 0.3 39 13.5
2011-07-18 07:45:52 51°18.584 2°51.006 336 0.3 44 13.5
2011-07-18 07:45:56 51°18.584 2°51.007 335.6 0.4 55 13.5
2011-07-18 07:46:02 51°18.584 2°51.007 336.2 0.1 26 13.7
2011-07-18 07:46:08 51°18.584 2°51.007 336.4 0.3 82 13.9
2011-07-18 07:46:12 51°18.584 2°51.007 336.5 0.2 168 14
2011-07-18 07:46:16 51°18.585 2°51.008 336.3 0.4 134 13
2011-07-18 07:46:22 51°18.584 2°51.009 337.6 0.4 102 13.1
2011-07-18 07:46:28 51°18.584 2°51.009 337 0.3 108 13.7
2011-07-18 07:46:32 51°18.584 2°51.009 336.2 0.2 188 13.5
2011-07-18 07:46:36 51°18.584 2°51.011 335.4 0.4 80 13.4
2011-07-18 07:46:42 51°18.584 2°51.011 335.7 0.4 86 14
2011-07-18 07:46:48 51°18.584 2°51.012 335.4 0.2 123 13.7
2011-07-18 07:46:52 51°18.583 2°51.012 336.5 0.3 103 13.6
2011-07-18 07:46:56 51°18.584 2°51.013 335.6 0.2 119 13.4
2011-07-18 07:47:02 51°18.584 2°51.013 335.6 0.2 127 13.1
2011-07-18 07:47:08 51°18.584 2°51.014 335.9 0.2 102 13.1
2011-07-18 07:47:12 51°18.584 2°51.014 335.3 0.2 66 13.5
2011-07-18 07:47:16 51°18.584 2°51.014 335 0.3 77 13.4
2011-07-18 07:47:22 51°18.584 2°51.015 335.1 0.2 101 13.3
2011-07-18 07:47:28 51°18.584 2°51.015 334.7 0.1 128 13.2
2011-07-18 07:47:32 51°18.584 2°51.016 335.4 0.2 74 13.1
2011-07-18 07:47:36 51°18.584 2°51.016 335.8 0.3 56 13.5
2011-07-18 07:47:42 51°18.584 2°51.017 335.5 0.4 54 13.5
2011-07-18 07:47:48 51°18.585 2°51.018 334.9 0.6 67 13.7
2011-07-18 07:47:52 51°18.584 2°51.018 335.4 0.3 109 13.8
2011-07-18 07:47:56 51°18.585 2°51.02 336.5 0.1 174 13.3
2011-07-18 07:48:02 51°18.585 2°51.021 338.7 0.4 77 13.3
2011-07-18 07:48:08 51°18.585 2°51.021 337.3 0.3 75 13.7
2011-07-18 07:48:12 51°18.585 2°51.021 336.1 0.1 168 13.5
2011-07-18 07:48:16 51°18.586 2°51.022 335.4 0.2 114 12.9
2011-07-18 07:48:22 51°18.586 2°51.023 335.1 0.3 101 12.7
2011-07-18 07:48:27 51°18.585 2°51.023 335.1 0.3 86 13.2
2011-07-18 07:48:32 51°18.585 2°51.024 334 0.2 103 13.4
2011-07-18 07:48:36 51°18.585 2°51.024 333.9 0.4 77 13.7
2011-07-18 07:48:42 51°18.585 2°51.025 334.3 0.1 123 13.5
2011-07-18 07:48:48 51°18.585 2°51.025 334.3 0.3 93 13.2
2011-07-18 07:48:52 51°18.585 2°51.026 334.2 0.2 77 13.2
2011-07-18 07:48:56 51°18.585 2°51.026 334 0.2 40 13.3
2011-07-18 07:49:02 51°18.586 2°51.027 333.6 0.3 18 13.4
2011-07-18 07:49:08 51°18.587 2°51.027 333.1 0.5 11 13.2
2011-07-18 07:49:12 51°18.587 2°51.027 334.7 0.7 5 13.5
2011-07-18 07:49:16 51°18.588 2°51.027 338 1.1 359 13.5
2011-07-18 07:49:22 51°18.591 2°51.026 341.3 1.4 353 13.5
2011-07-18 07:49:28 51°18.593 2°51.025 344.6 1.7 348 13.3
2011-07-18 07:49:32 51°18.596 2°51.025 348.5 2 350 13.3
2011-07-18 07:49:36 51°18.598 2°51.024 351.8 2.4 349 13.4
2011-07-18 07:49:42 51°18.602 2°51.023 355.7 2.6 358 13.5
2011-07-18 07:49:48 51°18.607 2°51.023 359.5 2.9 359 13.4
2011-07-18 07:49:52 51°18.61 2°51.023 4 3 359 13.5
2011-07-18 07:49:56 51°18.613 2°51.023 8.2 3.2 6 13.2
2011-07-18 07:50:02 51°18.619 2°51.026 12.6 3.3 7 13.3
2011-07-18 07:50:08 51°18.624 2°51.029 16.8 3.2 23 13.8
2011-07-18 07:50:12 51°18.628 2°51.031 22.3 3.4 20 13.5
2011-07-18 07:50:16 51°18.631 2°51.033 28.4 3.4 31 13.7
2011-07-18 07:50:22 51°18.636 2°51.038 34 3.4 33 13.7
2011-07-18 07:50:28 51°18.641 2°51.044 40.7 3.5 44 13.4
2011-07-18 07:50:32 51°18.643 2°51.049 47.7 3.5 42 13.4
2011-07-18 07:50:36 51°18.645 2°51.054 53 3.3 61 13.9
2011-07-18 07:50:42 51°18.648 2°51.062 59.1 3.3 69 13.9
2011-07-18 07:50:47 51°18.65 2°51.069 67.2 3.3 70 13.2
2011-07-18 07:50:52 51°18.65 2°51.076 74.3 3.3 81 13.7
2011-07-18 07:50:56 51°18.651 2°51.082 79.8 3.2 90 13.6
2011-07-18 07:51:02 51°18.65 2°51.09 87.7 3.3 91 13.8
2011-07-18 07:51:08 51°18.649 2°51.098 93.7 3.3 104 13.5
2011-07-18 07:51:12 51°18.648 2°51.104 100.5 3.3 106 13.5
2011-07-18 07:51:16 51°18.646 2°51.11 107 3.3 117 13.6
2011-07-18 07:51:22 51°18.644 2°51.117 113.1 3.3 120 13.5
2011-07-18 07:51:28 51°18.64 2°51.125 119.1 3.5 131 13.6
2011-07-18 07:51:32 51°18.638 2°51.13 124.9 3.8 129 13.7
2011-07-18 07:51:36 51°18.634 2°51.135 129.1 4 141 13.4
2011-07-18 07:51:42 51°18.629 2°51.143 133.9 4.3 134 14
2011-07-18 07:51:48 51°18.623 2°51.149 138.5 4.6 147 13.3
2011-07-18 07:51:52 51°18.618 2°51.154 141.3 4.9 150 13.1
2011-07-18 07:51:56 51°18.613 2°51.158 147.7 5.3 152 13.2
2011-07-18 07:52:02 51°18.605 2°51.164 152.5 5.8 159 13.1
2011-07-18 07:52:08 51°18.595 2°51.171 154.7 6.3 156 13.3
2011-07-18 07:52:12 51°18.588 2°51.175 155.5 7 158 13.1
2011-07-18 07:52:16 51°18.581 2°51.182 153.4 7.7 160 13.2
2011-07-18 07:52:23 51°18.566 2°51.192 154.9 8.1 152 13.3
2011-07-18 07:52:28 51°18.555 2°51.199 152.6 8.6 157 12.9
2011-07-18 07:52:32 51°18.546 2°51.208 150.3 9 150 13.6
2011-07-18 07:52:36 51°18.537 2°51.214 151.5 9.5 154 13.2
2011-07-18 07:52:42 51°18.523 2°51.227 149 9.7 152 12.8
2011-07-18 07:52:48 51°18.508 2°51.239 149 10.2 151 12.8
2011-07-18 07:52:52 51°18.498 2°51.249 147.4 10.6 149 12.8
2011-07-18 07:52:56 51°18.487 2°51.258 148 10.7 152 12.9
2011-07-18 07:53:02 51°18.472 2°51.273 147.1 11.1 146 12.9
2011-07-18 07:53:08 51°18.454 2°51.287 145.4 11.5 154 12.4
2011-07-18 07:53:12 51°18.443 2°51.299 147 11.8 146 12.9
2011-07-18 07:53:16 51°18.432 2°51.308 147.6 11.6 152 12.3
2011-07-18 07:53:22 51°18.416 2°51.326 144.1 12.3 143 12.6
2011-07-18 07:53:28 51°18.398 2°51.341 145.2 12 156 12
2011-07-18 07:53:32 51°18.388 2°51.353 148.1 11.7 147 11.8
2011-07-18 07:53:37 51°18.374 2°51.37 143.7 12.6 147 12.3
2011-07-18 07:53:43 51°18.355 2°51.382 146.7 12.2 158 -999
2011-07-18 07:53:48 51°18.342 2°51.398 148.9 11.9 144 11.6
2011-07-18 07:53:52 51°18.33 2°51.408 145.2 12.3 154 11.6
2011-07-18 07:53:56 51°18.317 2°51.417 148.9 12.2 150 11.7
2011-07-18 07:54:02 51°18.3 2°51.435 147.4 12.1 150 11.1
2011-07-18 07:54:08 51°18.283 2°51.451 146.1 12.1 150 11.7
2011-07-18 07:54:12 51°18.271 2°51.462 148 12.2 150 11.6
2011-07-18 07:54:17 51°18.257 2°51.476 145.4 12.3 152 11
2011-07-18 07:54:22 51°18.242 2°51.49 146.9 12.3 147 11.1
2011-07-18 07:54:28 51°18.225 2°51.506 146.4 12 152 11.2
2011-07-18 07:54:32 51°18.213 2°51.515 148.2 11.8 152 10.8
2011-07-18 07:54:37 51°18.199 2°51.531 146.4 12.5 146 11.2
2011-07-18 07:54:42 51°18.183 2°51.542 147.6 12.5 156 10.9
2011-07-18 07:54:48 51°18.166 2°51.559 149.2 12 150 10.7
2011-07-18 07:54:52 51°18.154 2°51.569 148.2 12.1 152 10.8
2011-07-18 07:54:57 51°18.139 2°51.58 150 12.3 157 10.2
2011-07-18 07:55:02 51°18.123 2°51.594 150.5 12.8 150 10.3
2011-07-18 07:55:08 51°18.104 2°51.606 150.8 12.4 161 10.5
2011-07-18 07:55:12 51°18.092 2°51.615 153.5 11.6 155 10
2011-07-18 07:55:17 51°18.078 2°51.628 149.6 12.1 153 10
2011-07-18 07:55:22 51°18.062 2°51.639 150.3 12.8 158 9.9
2011-07-18 07:55:28 51°18.043 2°51.654 153.2 12.8 153 10.4
2011-07-18 07:55:32 51°18.03 2°51.661 151.9 12.2 160 10.2
2011-07-18 07:55:37 51°18.015 2°51.672 154 11.9 151 9.6
2011-07-18 07:55:42 51°17.999 2°51.684 150.7 12.5 160 9.8
2011-07-18 07:55:48 51°17.98 2°51.695 155.5 12.5 156 9.4
2011-07-18 07:55:52 51°17.968 2°51.705 154.6 12 158 10.1
2011-07-18 07:55:57 51°17.952 2°51.716 154.7 12.4 150 9.8
2011-07-18 07:56:02 51°17.936 2°51.726 150.3 12.4 163 9.7
2011-07-18 07:56:08 51°17.918 2°51.737 156.6 11.9 157 9.4
2011-07-18 07:56:12 51°17.906 2°51.748 153.8 12.2 152 9.7
2011-07-18 07:56:17 51°17.89 2°51.758 153.2 12.2 159 9.4
2011-07-18 07:56:22 51°17.875 2°51.769 153.8 12.5 152 9.2
2011-07-18 07:56:28 51°17.856 2°51.782 151.1 12.6 161 9.3
2011-07-18 07:56:32 51°17.843 2°51.79 156.4 12.2 158 9.7
2011-07-18 07:56:37 51°17.828 2°51.801 154.8 12.3 153 9.4
2011-07-18 07:56:43 51°17.808 2°51.812 152.5 12.3 162 9.6
2011-07-18 07:56:48 51°17.793 2°51.824 156.5 12.2 154 9.5
2011-07-18 07:56:52 51°17.78 2°51.832 153.4 12.3 158 9.2
2011-07-18 07:56:57 51°17.764 2°51.842 154.7 12.4 155 9.5
2011-07-18 07:57:02 51°17.749 2°51.852 154.2 12 160 9.2
2011-07-18 07:57:08 51°17.73 2°51.866 154.6 12.4 154 9.2
2011-07-18 07:57:12 51°17.717 2°51.876 152.2 12.7 155 9.5
2011-07-18 07:57:17 51°17.701 2°51.884 154.7 12.1 157 9
2011-07-18 07:57:22 51°17.687 2°51.897 151.8 12.2 156 9.2
2011-07-18 07:57:28 51°17.667 2°51.907 154.2 12.3 160 9.4
2011-07-18 07:57:32 51°17.655 2°51.917 154.7 12.3 154 9.4
2011-07-18 07:57:37 51°17.639 2°51.928 153.2 12.4 157 9.4
2011-07-18 07:57:42 51°17.623 2°51.939 152.8 12.6 155 9.9
2011-07-18 07:57:48 51°17.604 2°51.95 153.9 12.2 160 9.8
2011-07-18 07:57:52 51°17.591 2°51.96 153.8 12.8 153 9.4
2011-07-18 07:57:57 51°17.575 2°51.972 152.9 12.6 161 10.2
2011-07-18 07:58:02 51°17.56 2°51.982 157 12.2 151 9.3
2011-07-18 07:58:08 51°17.541 2°51.996 150.4 12.6 159 9.9
2011-07-18 07:58:12 51°17.528 2°52.003 155.7 12.4 160 9.7
2011-07-18 07:58:17 51°17.512 2°52.018 152.4 12.8 153 10
2011-07-18 07:58:22 51°17.495 2°52.026 153.2 12.6 161 10.3
2011-07-18 07:58:28 51°17.477 2°52.041 155 12.4 152 9.9
2011-07-18 07:58:32 51°17.464 2°52.05 151.1 12.9 157 10.1
2011-07-18 07:58:37 51°17.448 2°52.059 154.7 12.4 161 10.2
2011-07-18 07:58:42 51°17.433 2°52.073 154 12.6 149 10.6
2011-07-18 07:58:47 51°17.416 2°52.083 150.2 12.6 161 10.6
2011-07-18 07:58:52 51°17.401 2°52.096 153.9 12.5 151 10.3
2011-07-18 07:58:56 51°17.388 2°52.105 150.4 12.6 160 10.7
2011-07-18 07:59:02 51°17.369 2°52.116 154.9 12.2 155 10.1
2011-07-18 07:59:08 51°17.351 2°52.132 151.8 12.6 154 10
2011-07-18 07:59:12 51°17.338 2°52.142 152.5 12.7 156 10.9
2011-07-18 07:59:16 51°17.325 2°52.149 155.5 12 160 10.3
2011-07-18 07:59:22 51°17.307 2°52.165 152 12.7 149 10.9
2011-07-18 07:59:28 51°17.287 2°52.176 152.4 12.8 161 10.9
2011-07-18 07:59:32 51°17.274 2°52.185 155.4 12.1 154 10.3
2011-07-18 07:59:36 51°17.263 2°52.195 151.6 12.2 154 10.1
2011-07-18 07:59:42 51°17.244 2°52.209 150.8 12.7 155 10.8
2011-07-18 07:59:48 51°17.224 2°52.221 154 12.3 157 10.4
2011-07-18 07:59:52 51°17.212 2°52.231 152.6 12.3 153 10.1
2011-07-18 07:59:57 51°17.196 2°52.241 152.9 12.4 159 10.2
2011-07-18 08:00:03 51°17.177 2°52.256 154.4 12.4 153 10.2
2011-07-18 08:00:07 51°17.165 2°52.263 152.8 12.2 159 9.5
2011-07-18 08:00:12 51°17.149 2°52.275 153.6 12.4 154 9.5
2011-07-18 08:00:16 51°17.136 2°52.284 153.6 12.5 159 9.9
2011-07-18 08:00:22 51°17.117 2°52.295 155.3 12.4 156 9.2
2011-07-18 08:00:28 51°17.099 2°52.311 152.6 12.5 153 9.5
2011-07-18 08:00:32 51°17.086 2°52.318 153.7 12.2 160 9.4
2011-07-18 08:00:36 51°17.075 2°52.33 151 12.4 149 9.1
2011-07-18 08:00:42 51°17.055 2°52.342 151.6 12.6 162 9
2011-07-18 08:00:48 51°17.037 2°52.358 153.9 12.3 151 9.3
2011-07-18 08:00:52 51°17.024 2°52.364 152.5 12.1 159 9.2
2011-07-18 08:00:56 51°17.013 2°52.375 152.1 12.2 152 9.4
2011-07-18 08:01:02 51°16.994 2°52.388 151.9 12.5 155 9.2
2011-07-18 08:01:08 51°16.975 2°52.401 151.6 12.2 157 8.8
2011-07-18 08:01:12 51°16.963 2°52.41 153.7 12.1 156 8.5
2011-07-18 08:01:16 51°16.951 2°52.421 151.8 12.3 156 8.9
2011-07-18 08:01:22 51°16.932 2°52.431 154.5 12.3 156 8.4
2011-07-18 08:01:28 51°16.914 2°52.447 151.9 12.3 154 8.8
2011-07-18 08:01:32 51°16.901 2°52.455 153.1 12 158 8.7
2011-07-18 08:01:36 51°16.89 2°52.467 151.6 12.5 152 9
2011-07-18 08:01:42 51°16.87 2°52.479 150.8 12.5 158 9.4
2011-07-18 08:01:48 51°16.852 2°52.493 154.2 11.9 155 9.3
2011-07-18 08:01:52 51°16.84 2°52.502 151.9 12.2 153 8.6
2011-07-18 08:01:56 51°16.827 2°52.514 150.5 12.6 157 9.5
2011-07-18 08:02:02 51°16.808 2°52.525 154 12.3 152 8.7
2011-07-18 08:02:07 51°16.794 2°52.54 149.8 12.4 156 9.3
2011-07-18 08:02:12 51°16.777 2°52.549 153.6 12.4 157 9.2
2011-07-18 08:02:16 51°16.765 2°52.56 151.8 12.2 156 9
2011-07-18 08:02:22 51°16.746 2°52.572 152.5 12.2 156 9
2011-07-18 08:02:28 51°16.728 2°52.586 152.7 12.2 156 9.3
2011-07-18 08:02:32 51°16.715 2°52.593 153.3 12.3 159 9
2011-07-18 08:02:36 51°16.703 2°52.604 153.7 12.4 158 9.4
2011-07-18 08:02:42 51°16.683 2°52.614 156.1 12.4 156 10.2
2011-07-18 08:02:48 51°16.664 2°52.627 153.5 12.3 158 10
2011-07-18 08:02:52 51°16.651 2°52.636 153.1 12.6 156 10.4
2011-07-18 08:02:56 51°16.638 2°52.644 154.4 12.5 164 10.3
2011-07-18 08:03:02 51°16.62 2°52.657 155.1 12.4 152 10.4
2011-07-18 08:03:08 51°16.6 2°52.669 153.3 12.4 161 10.5
2011-07-18 08:03:12 51°16.587 2°52.677 155.1 12.4 159 10.5
2011-07-18 08:03:16 51°16.575 2°52.687 154 12.3 158 10.7
2011-07-18 08:03:22 51°16.555 2°52.698 154.7 12.7 157 10.5
2011-07-18 08:03:28 51°16.536 2°52.709 154.5 12.4 163 10.8
2011-07-18 08:03:32 51°16.523 2°52.717 157.3 12.3 159 10.8
2011-07-18 08:03:36 51°16.511 2°52.727 153.7 12.4 161 11.1
2011-07-18 08:03:42 51°16.491 2°52.734 156.4 12.2 158 10.7
2011-07-18 08:03:48 51°16.472 2°52.749 153.5 12.6 156 11.4
2011-07-18 08:03:52 51°16.458 2°52.755 154 12.6 162 11
2011-07-18 08:03:56 51°16.446 2°52.765 155 12 157 11.4
2011-07-18 08:04:02 51°16.427 2°52.776 153.8 12.5 157 10.9
2011-07-18 08:04:07 51°16.411 2°52.788 153.2 12.4 162 11.9
2011-07-18 08:04:12 51°16.395 2°52.796 156.2 12.3 159 11.7
2011-07-18 08:04:16 51°16.383 2°52.806 153.4 12.5 160 11.6
2011-07-18 08:04:22 51°16.363 2°52.815 156.1 12.1 158 11.8
2011-07-18 08:04:27 51°16.348 2°52.828 153.7 12.3 154 11
2011-07-18 08:04:32 51°16.332 2°52.837 152.3 12.6 160 11.2
2011-07-18 08:04:36 51°16.32 2°52.847 154.5 12.3 157 11.4
2011-07-18 08:04:42 51°16.301 2°52.86 154.2 12.4 156 11.8
2011-07-18 08:04:48 51°16.281 2°52.872 152.5 12.4 158 11.8
2011-07-18 08:04:52 51°16.269 2°52.882 152.4 12.3 155 11.6
2011-07-18 08:04:56 51°16.257 2°52.89 152.6 12.5 156 11.6
2011-07-18 08:05:02 51°16.237 2°52.903 152.6 12.5 161 11.4
2011-07-18 08:05:08 51°16.218 2°52.916 154.7 12.4 156 11.9
2011-07-18 08:05:12 51°16.206 2°52.925 152.5 12.4 155 11.8
2011-07-18 08:05:18 51°16.187 2°52.937 151.8 12.4 157 11.5
2011-07-18 08:05:22 51°16.174 2°52.945 153 12.2 159 11.3
2011-07-18 08:05:28 51°16.155 2°52.959 153.2 12.5 155 11.1
2011-07-18 08:05:32 51°16.142 2°52.967 151.6 12.7 158 11.3
2011-07-18 08:05:36 51°16.13 2°52.975 153.7 12.1 160 11.1
2011-07-18 08:05:42 51°16.111 2°52.987 154.3 11.9 154 11
2011-07-18 08:05:48 51°16.092 2°53.001 150.5 12.5 157 10.9
2011-07-18 08:05:52 51°16.08 2°53.009 152.3 12.6 157 11.2
2011-07-18 08:05:56 51°16.067 2°53.017 153.6 12 155 10.8
2011-07-18 08:06:03 51°16.046 2°53.034 150.3 12.5 155 10.8
2011-07-18 08:06:08 51°16.029 2°53.045 150.6 12.6 158 11.2
2011-07-18 08:06:12 51°16.017 2°53.052 153.2 12.3 158 10.8
2011-07-18 08:06:16 51°16.004 2°53.063 151.2 12.2 156 11.3
2011-07-18 08:06:22 51°15.985 2°53.074 153.1 12.2 157 10.9
2011-07-18 08:06:27 51°15.97 2°53.086 151.3 12.5 156 10.7
2011-07-18 08:06:32 51°15.954 2°53.095 152.5 12.4 160 10.8
2011-07-18 08:06:36 51°15.941 2°53.104 154.3 12.3 156 11.1
2011-07-18 08:06:42 51°15.922 2°53.115 153.6 12.3 160 10.6
2011-07-18 08:06:48 51°15.903 2°53.13 153.2 12.3 155 11.2
2011-07-18 08:06:52 51°15.89 2°53.134 154.7 12.2 164 10.9
2011-07-18 08:06:56 51°15.878 2°53.145 153.4 12.4 153 10.7
2011-07-18 08:07:02 51°15.858 2°53.156 152.6 12.4 165 10.7
2011-07-18 08:07:08 51°15.84 2°53.168 156.6 12 155 10.6
2011-07-18 08:07:12 51°15.827 2°53.176 153 12.5 160 10.5
2011-07-18 08:07:16 51°15.814 2°53.184 153.8 12.6 158 10.7
2011-07-18 08:07:22 51°15.795 2°53.196 154 12.1 159 10.4
2011-07-18 08:07:28 51°15.777 2°53.21 152.5 12.3 154 10.7
2011-07-18 08:07:32 51°15.764 2°53.217 152.2 12.3 160 10
2011-07-18 08:07:36 51°15.752 2°53.228 151.8 12.4 152 10.7
2011-07-18 08:07:42 51°15.733 2°53.24 150.5 12.5 157 9.8
2011-07-18 08:07:48 51°15.715 2°53.254 150.3 12.1 157 10.6
2011-07-18 08:07:52 51°15.702 2°53.262 152 12.1 157 10.5
2011-07-18 08:07:56 51°15.69 2°53.273 149.8 12.6 155 10.3
2011-07-18 08:08:02 51°15.671 2°53.286 150.5 12.6 157 10.6
2011-07-18 08:08:08 51°15.652 2°53.301 152 12.4 152 10.1
2011-07-18 08:08:12 51°15.64 2°53.311 148.7 12.3 152 10.2
2011-07-18 08:08:16 51°15.627 2°53.318 150.5 12.2 155 10
2011-07-18 08:08:22 51°15.61 2°53.336 148.2 12.6 152 10.7
2011-07-18 08:08:28 51°15.59 2°53.347 149.9 12.5 159 10.4
2011-07-18 08:08:32 51°15.579 2°53.358 150.3 12.1 150 10.3
2011-07-18 08:08:36 51°15.566 2°53.367 148.3 12.3 154 10.1
2011-07-18 08:08:42 51°15.548 2°53.383 147.8 12.5 152 10
2011-07-18 08:08:48 51°15.531 2°53.397 148.4 12 154 10.3
2011-07-18 08:08:52 51°15.519 2°53.408 148.4 12 149 10.2
2011-07-18 08:08:56 51°15.507 2°53.42 144.3 12.5 152 9.6
2011-07-18 08:09:02 51°15.489 2°53.434 147.5 12.1 151 9.8
2011-07-18 08:09:08 51°15.471 2°53.451 146.5 12.2 149 10.2
2011-07-18 08:09:12 51°15.459 2°53.46 146.3 12.5 154 9.7
2011-07-18 08:09:16 51°15.447 2°53.472 147.8 12.2 152 9
2011-07-18 08:09:22 51°15.429 2°53.485 149.2 12.4 150 9.7
2011-07-18 08:09:28 51°15.41 2°53.499 148.4 12.4 157 9.3
2011-07-18 08:09:32 51°15.398 2°53.509 151.5 12.2 154 9.7
2011-07-18 08:09:36 51°15.386 2°53.517 151.7 12.6 155 9.4
2011-07-18 08:09:42 51°15.367 2°53.53 152.2 12.3 164 9.4
2011-07-18 08:09:48 51°15.348 2°53.543 157.6 12.3 153 9.1
2011-07-18 08:09:52 51°15.335 2°53.549 154.7 12.1 162 9.5
2011-07-18 08:09:58 51°15.316 2°53.56 159.9 12.1 156 9.1
2011-07-18 08:10:02 51°15.303 2°53.568 155.7 12.6 163 9.2
2011-07-18 08:10:08 51°15.283 2°53.575 159.6 12.3 165 9
2011-07-18 08:10:12 51°15.271 2°53.584 160 12 157 9
2011-07-18 08:10:16 51°15.258 2°53.589 157.8 12 164 9
2011-07-18 08:10:22 51°15.239 2°53.6 158.7 12.4 161 8.9
2011-07-18 08:10:28 51°15.218 2°53.608 159 12.6 166 9.2
2011-07-18 08:10:32 51°15.205 2°53.614 161.9 12.4 165 9
2011-07-18 08:10:36 51°15.192 2°53.62 161.4 12 165 8.8
2011-07-18 08:10:42 51°15.173 2°53.628 161.2 12.1 165 8.9
2011-07-18 08:10:48 51°15.153 2°53.636 161.4 12.4 166 8.7
2011-07-18 08:10:52 51°15.14 2°53.643 161.4 12.5 164 9.2
2011-07-18 08:10:56 51°15.126 2°53.645 164.2 12.3 166 8.9
2011-07-18 08:11:02 51°15.106 2°53.656 161.8 12.4 165 9.1
2011-07-18 08:11:07 51°15.09 2°53.662 162.5 12.3 166 9
2011-07-18 08:11:12 51°15.073 2°53.669 162.8 12.1 164 8.9
2011-07-18 08:11:16 51°15.06 2°53.675 160.6 12.3 164 8.9
2011-07-18 08:11:22 51°15.04 2°53.683 160.7 12.7 166 8.4
2011-07-18 08:11:28 51°15.019 2°53.693 160.7 13 163 9
2011-07-18 08:11:32 51°15.006 2°53.696 163.3 12.3 171 9.3
2011-07-18 08:11:36 51°14.993 2°53.702 163.5 11.8 160 8.7
2011-07-18 08:11:42 51°14.973 2°53.711 159.5 12.6 167 8.5
2011-07-18 08:11:48 51°14.953 2°53.718 161.2 12.7 169 8.6
2011-07-18 08:11:52 51°14.94 2°53.725 163.1 12.4 164 8.8
2011-07-18 08:11:58 51°14.92 2°53.733 161 12.3 167 8.4
2011-07-18 08:12:02 51°14.907 2°53.738 161.9 12.2 167 8.7
2011-07-18 08:12:08 51°14.887 2°53.743 163.7 12.2 169 8.6
2011-07-18 08:12:12 51°14.874 2°53.748 164.3 12.4 168 8.6
2011-07-18 08:12:16 51°14.86 2°53.75 166.5 12.4 172 8.5
2011-07-18 08:12:22 51°14.84 2°53.754 167.9 12.2 171 8.3
2011-07-18 08:12:28 51°14.819 2°53.758 168.5 12.4 174 8.2
2011-07-18 08:12:32 51°14.805 2°53.76 169.8 12.5 175 8.6
2011-07-18 08:12:36 51°14.792 2°53.762 171.7 12.3 174 8.4
2011-07-18 08:12:43 51°14.768 2°53.766 170.5 12.4 175 8.1
2011-07-18 08:12:48 51°14.751 2°53.768 170.6 12.5 176 8.4
2011-07-18 08:12:52 51°14.737 2°53.769 172 12.5 175 8.3
2011-07-18 08:12:56 51°14.723 2°53.771 171.4 12.4 179 8.4
2011-07-18 08:13:02 51°14.703 2°53.774 171.9 12.5 171 8.4
2011-07-18 08:13:08 51°14.681 2°53.775 170.6 12.6 180 8.4
2011-07-18 08:13:12 51°14.668 2°53.777 173 12.2 175 7.9
2011-07-18 08:13:16 51°14.654 2°53.781 170 12.7 178 8.5
2011-07-18 08:13:22 51°14.633 2°53.781 172.2 12.7 176 8.7
2011-07-18 08:13:28 51°14.613 2°53.781 173.6 12.3 180 8.3
2011-07-18 08:13:32 51°14.599 2°53.783 172.9 12.4 177 8.6
2011-07-18 08:13:36 51°14.585 2°53.781 174.9 12.8 183 8.5
2011-07-18 08:13:42 51°14.563 2°53.78 177 12.9 185 8.9
2011-07-18 08:13:48 51°14.543 2°53.775 181.4 12.5 188 8.9
2011-07-18 08:13:52 51°14.529 2°53.772 182 12.7 186 8.7
2011-07-18 08:13:56 51°14.515 2°53.768 182.3 12.9 194 8.6
2011-07-18 08:14:02 51°14.494 2°53.76 187.4 12.8 192 8.8
2011-07-18 08:14:08 51°14.473 2°53.752 187.3 12.9 195 8.9
2011-07-18 08:14:12 51°14.459 2°53.744 189.7 13 198 8.6
2011-07-18 08:14:18 51°14.439 2°53.733 193 13 202 8.6
2011-07-18 08:14:22 51°14.426 2°53.725 196.2 12.8 201 8.7
2011-07-18 08:14:28 51°14.406 2°53.712 196.7 13.1 203 8.8
2011-07-18 08:14:32 51°14.393 2°53.701 198.8 13 207 8.8
2011-07-18 08:14:36 51°14.38 2°53.691 202.9 13 207 8.5
2011-07-18 08:14:42 51°14.361 2°53.673 204.6 13.2 212 8.7
2011-07-18 08:14:48 51°14.343 2°53.654 207.9 13.2 214 8.5
2011-07-18 08:14:52 51°14.331 2°53.64 210.3 13.2 215 8.6
2011-07-18 08:14:56 51°14.319 2°53.626 212.5 13.2 218 8.2
2011-07-18 08:15:02 51°14.302 2°53.604 214.4 13.3 219 8.9
2011-07-18 08:15:08 51°14.285 2°53.582 217.2 13.3 220 8.6
2011-07-18 08:15:12 51°14.275 2°53.565 219.2 13.3 223 8.9
2011-07-18 08:15:16 51°14.264 2°53.549 222.2 13.3 225 9
2011-07-18 08:15:22 51°14.249 2°53.523 224.9 13.3 228 8.4
2011-07-18 08:15:28 51°14.235 2°53.496 226.5 13.4 231 8.6
2011-07-18 08:15:32 51°14.226 2°53.477 229.3 13.3 232 8.5
2011-07-18 08:15:36 51°14.217 2°53.458 231.3 13.4 234 8.8
2011-07-18 08:15:42 51°14.205 2°53.429 233.8 13.4 236 8.4
2011-07-18 08:15:48 51°14.193 2°53.399 235.2 13.3 238 8.5
2011-07-18 08:15:52 51°14.185 2°53.379 237.4 13.2 238 8.9
2011-07-18 08:15:56 51°14.178 2°53.359 238.7 13.3 240 8.6
2011-07-18 08:16:02 51°14.166 2°53.329 238.4 13.1 239 8.3
2011-07-18 08:16:08 51°14.155 2°53.298 238.9 13.3 241 8.7
2011-07-18 08:16:12 51°14.148 2°53.278 240.4 13.3 241 8.4
2011-07-18 08:16:16 51°14.141 2°53.258 240.3 13.2 240 8.9
2011-07-18 08:16:22 51°14.13 2°53.227 241 13.3 241 8.8
2011-07-18 08:16:28 51°14.118 2°53.197 240.1 13.4 238 9.2
2011-07-18 08:16:32 51°14.111 2°53.177 239.6 13.3 240 8.4
2011-07-18 08:16:38 51°14.099 2°53.148 238.7 13.2 237 8.8
2011-07-18 08:16:42 51°14.091 2°53.127 237.6 13.3 238 8.9
2011-07-18 08:16:48 51°14.08 2°53.098 237.9 13.3 237 9
2011-07-18 08:16:52 51°14.072 2°53.078 237.8 13.2 238 9.1
2011-07-18 08:16:56 51°14.064 2°53.059 237 13.1 236 8.9
2011-07-18 08:17:02 51°14.052 2°53.03 236 13.2 236 8.9
2011-07-18 08:17:08 51°14.04 2°53 236.2 13.2 237 9
2011-07-18 08:17:12 51°14.031 2°52.981 236 13.2 236 8.7
2011-07-18 08:17:16 51°14.023 2°52.961 235.3 13.2 236 8.7
2011-07-18 08:17:22 51°14.011 2°52.933 235.1 13.2 234 9.3
2011-07-18 08:17:28 51°13.998 2°52.904 234.8 13.2 235 9.2
2011-07-18 08:17:32 51°13.989 2°52.885 234.2 13.2 234 9
2011-07-18 08:17:36 51°13.981 2°52.866 234.3 13.2 236 9
2011-07-18 08:17:42 51°13.968 2°52.837 235.2 13.2 235 8.8
2011-07-18 08:17:47 51°13.958 2°52.813 234.8 13.2 236 9.2
2011-07-18 08:17:52 51°13.947 2°52.789 235 13.1 236 8.9
2011-07-18 08:17:56 51°13.939 2°52.77 234.2 13.2 234 9.1
2011-07-18 08:18:02 51°13.926 2°52.741 234.1 13.3 235 9.1
2011-07-18 08:18:08 51°13.913 2°52.712 234.2 13.4 234 9.3
2011-07-18 08:18:12 51°13.905 2°52.693 233.8 13.3 234 9.2
2011-07-18 08:18:16 51°13.896 2°52.674 233.9 13.3 234 9.1